User: anonymous
Location: Churchill
(58.7670°N, 94.1670°W)
Time: 18:58:13
(UTC-05:00)
Language:

Cosmos 1206 Rocket - Orbit

View from above orbital plane
View from above orbital plane
View from above satellite
View from above satellite

Ground track
Ground track

The orbit data is extracted from the following two-line orbital elements,

1 11933U 80069B   14108.86836878  .00295238  31589-4  87560-3 0  3035
2 11933 081.1925 059.6751 0011715 136.5653 223.6542 15.92326464853891
Epoch (UTC): 18 April 2014 20:50:27
Eccentricity: 0.0011715
inclination: 81.1925°
perigee height: 288 km
apogee height: 303 km
right ascension of ascending node: 59.6751°
argument of perigee: 136.5653°
revolutions per day: 15.92326464
mean anomaly at epoch: 223.6542°
orbit number at epoch: 85389

The dashed part of the orbit path shows where the satellite is in the earth's shadow,  

DLR